owner,sensor,date,latitude,longitude,vertical_datum,sea_water_temperature,qcFlag
BP,ioos:station:wmo:42369:3,2021-08-01T00:00:00Z,27.2166,-90.2841,558.8,68.7,11144222
BP,ioos:station:wmo:42369:3,2021-08-01T00:20:00Z,27.2167,-90.2841,558.6,68.8,11144222
BP,ioos:station:wmo:42369:3,2021-08-01T01:00:00Z,27.2166,-90.2842,559.8,68.8,11144222
BP,ioos:station:wmo:42369:3,2021-08-01T01:20:00Z,27.2166,-90.2842,559.5,68.8,11144222
BP,ioos:station:wmo:42369:3,2021-08-01T01:40:00Z,27.2165,-90.2842,560.6,68.8,11144222
BP,ioos:station:wmo:42369:3,2021-08-01T02:00:00Z,27.2165,-90.2844,559.6,68.7,11144222
BP,ioos:station:wmo:42369:3,2021-08-01T02:20:00Z,27.2164,-90.2847,558.4,68.8,11144222
BP,ioos:station:wmo:42369:3,2021-08-01T02:40:00Z,27.2164,-90.2848,557.1,68.8,11144222
BP,ioos:station:wmo:42369:3,2021-08-01T03:00:00Z,27.2164,-90.2851,557.1,68.8,11144222
BP,ioos:station:wmo:42369:3,2021-08-01T03:20:00Z,27.2164,-90.2851,555.3,68.8,11144222
BP,ioos:station:wmo:42369:3,2021-08-01T03:40:00Z,27.2164,-90.2852,553.5,68.8,11144222
BP,ioos:station:wmo:42369:3,2021-08-01T04:20:00Z,27.2164,-90.2852,549.4,68.8,11144222
BP,ioos:station:wmo:42369:3,2021-08-01T04:40:00Z,27.2164,-90.2852,552.3,68.8,11144222
BP,ioos:station:wmo:42369:3,2021-08-01T05:00:00Z,27.2164,-90.2853,553.5,68.8,11144222
BP,ioos:station:wmo:42369:3,2021-08-01T05:20:00Z,27.2164,-90.2853,555.0,68.8,11144222
BP,ioos:station:wmo:42369:3,2021-08-01T05:40:00Z,27.2164,-90.2853,556.4,68.8,11144222
BP,ioos:station:wmo:42369:3,2021-08-01T06:00:00Z,27.2164,-90.2853,556.3,68.8,11144222
BP,ioos:station:wmo:42369:3,2021-08-01T06:20:00Z,27.2164,-90.2854,557.4,68.8,11144222
BP,ioos:station:wmo:42369:3,2021-08-01T06:40:00Z,27.2164,-90.2854,559.3,68.8,11144222
BP,ioos:station:wmo:42369:3,2021-08-01T07:00:00Z,27.2164,-90.2854,559.7,68.8,11144222
BP,ioos:station:wmo:42369:3,2021-08-01T07:20:00Z,27.2164,-90.2855,558.9,68.8,11144222
BP,ioos:station:wmo:42369:3,2021-08-01T07:40:00Z,27.2164,-90.2855,561.8,68.8,11144222
BP,ioos:station:wmo:42369:3,2021-08-01T08:00:00Z,27.2164,-90.2855,561.4,68.8,11144222
BP,ioos:station:wmo:42369:3,2021-08-01T08:20:00Z,27.2164,-90.2855,561.6,68.8,11144222
BP,ioos:station:wmo:42369:3,2021-08-01T08:40:00Z,27.2164,-90.2856,563.5,68.8,11144222
BP,ioos:station:wmo:42369:3,2021-08-01T09:00:00Z,27.2164,-90.2856,564.4,68.8,11144222
BP,ioos:station:wmo:42369:3,2021-08-01T09:20:00Z,27.2163,-90.2857,563.8,68.8,11144222
BP,ioos:station:wmo:42369:3,2021-08-01T09:40:00Z,27.2163,-90.2857,564.8,68.8,11144222
BP,ioos:station:wmo:42369:3,2021-08-01T10:00:00Z,27.2163,-90.2858,564.9,68.8,11144222
BP,ioos:station:wmo:42369:3,2021-08-01T10:20:00Z,27.2163,-90.2858,567.2,68.8,11144222
BP,ioos:station:wmo:42369:3,2021-08-01T11:00:00Z,27.2163,-90.2859,566.7,68.8,11144222
BP,ioos:station:wmo:42369:3,2021-08-01T11:20:00Z,27.2163,-90.2860,570.2,68.8,11144222
BP,ioos:station:wmo:42369:3,2021-08-01T11:40:00Z,27.2163,-90.2861,571.2,68.8,11144222
BP,ioos:station:wmo:42369:3,2021-08-01T12:00:00Z,27.2163,-90.2861,571.5,68.8,11144222
BP,ioos:station:wmo:42369:3,2021-08-01T12:20:00Z,27.2163,-90.2862,574.8,68.8,11144222
BP,ioos:station:wmo:42369:3,2021-08-01T12:40:00Z,27.2163,-90.2862,576.7,68.8,11144222
BP,ioos:station:wmo:42369:3,2021-08-01T13:00:00Z,27.2163,-90.2863,578.9,68.8,11144222
BP,ioos:station:wmo:42369:3,2021-08-01T13:20:00Z,27.2163,-90.2864,580.0,68.8,11144222
BP,ioos:station:wmo:42369:3,2021-08-01T13:40:00Z,27.2163,-90.2864,581.4,68.8,11144222
BP,ioos:station:wmo:42369:3,2021-08-01T14:00:00Z,27.2163,-90.2864,584.0,68.8,11144222
BP,ioos:station:wmo:42369:3,2021-08-01T14:20:00Z,27.2163,-90.2864,583.7,68.8,11144222
BP,ioos:station:wmo:42369:3,2021-08-01T14:40:00Z,27.2163,-90.2864,584.0,68.7,11144222
BP,ioos:station:wmo:42369:3,2021-08-01T15:00:00Z,27.2163,-90.2865,584.5,68.8,11144222
BP,ioos:station:wmo:42369:3,2021-08-01T15:20:00Z,27.2163,-90.2865,585.9,68.8,11144222
BP,ioos:station:wmo:42369:3,2021-08-01T15:40:00Z,27.2163,-90.2865,586.6,68.8,11144222
BP,ioos:station:wmo:42369:3,2021-08-01T16:00:00Z,27.2163,-90.2866,585.5,68.8,11144222
BP,ioos:station:wmo:42369:3,2021-08-01T16:20:00Z,27.2163,-90.2865,585.8,68.8,11144222
BP,ioos:station:wmo:42369:3,2021-08-01T16:40:00Z,27.2163,-90.2865,585.2,68.8,11144222
BP,ioos:station:wmo:42369:3,2021-08-01T17:00:00Z,27.2163,-90.2865,585.1,68.8,11144222
BP,ioos:station:wmo:42369:3,2021-08-01T17:20:00Z,27.2164,-90.2865,587.0,68.8,11144222
BP,ioos:station:wmo:42369:3,2021-08-01T17:40:00Z,27.2162,-90.2869,586.7,68.8,11144222
BP,ioos:station:wmo:42369:3,2021-08-01T18:00:00Z,27.2158,-90.2876,586.1,68.8,11144222
BP,ioos:station:wmo:42369:3,2021-08-01T18:20:00Z,27.2157,-90.2877,588.0,68.8,11144222
BP,ioos:station:wmo:42369:3,2021-08-01T18:40:00Z,27.2157,-90.2879,585.7,68.8,11144222
BP,ioos:station:wmo:42369:3,2021-08-01T19:00:00Z,27.2156,-90.2880,585.8,68.9,11144222
BP,ioos:station:wmo:42369:3,2021-08-01T19:20:00Z,27.2156,-90.2881,587.4,68.8,11144222
BP,ioos:station:wmo:42369:3,2021-08-01T19:40:00Z,27.2156,-90.2881,586.1,68.8,11144222
BP,ioos:station:wmo:42369:3,2021-08-01T20:00:00Z,27.2155,-90.2882,584.4,68.9,11144222
BP,ioos:station:wmo:42369:3,2021-08-01T20:20:00Z,27.2155,-90.2883,583.9,68.8,11144222
BP,ioos:station:wmo:42369:3,2021-08-01T20:40:00Z,27.2155,-90.2883,584.9,68.8,11144222
BP,ioos:station:wmo:42369:3,2021-08-01T21:00:00Z,27.2154,-90.2884,583.0,68.8,11144222
BP,ioos:station:wmo:42369:3,2021-08-01T21:20:00Z,27.2154,-90.2884,582.9,68.9,11144222
BP,ioos:station:wmo:42369:3,2021-08-01T21:40:00Z,27.2154,-90.2885,582.2,68.8,11144222
BP,ioos:station:wmo:42369:3,2021-08-01T22:00:00Z,27.2153,-90.2886,582.2,68.8,11144222
BP,ioos:station:wmo:42369:3,2021-08-01T22:20:00Z,27.2153,-90.2886,580.1,68.8,11144222
BP,ioos:station:wmo:42369:3,2021-08-01T22:40:00Z,27.2153,-90.2886,579.6,68.8,11144222
BP,ioos:station:wmo:42369:3,2021-08-01T23:00:00Z,27.2153,-90.2887,578.5,68.8,11144222
BP,ioos:station:wmo:42369:3,2021-08-01T23:20:00Z,27.2153,-90.2887,577.8,68.8,11144222
BP,ioos:station:wmo:42369:3,2021-08-01T23:40:00Z,27.2152,-90.2887,579.0,68.8,11144222
BP,ioos:station:wmo:42369:3,2021-08-02T00:00:00Z,27.2152,-90.2891,579.6,68.8,11144222
BP,ioos:station:wmo:42369:3,2021-08-02T00:20:00Z,27.2152,-90.2888,579.0,68.9,11144222
BP,ioos:station:wmo:42369:3,2021-08-02T00:40:00Z,27.2152,-90.2888,577.8,68.9,11144222
BP,ioos:station:wmo:42369:3,2021-08-02T01:00:00Z,27.2152,-90.2888,578.7,68.9,11144222
BP,ioos:station:wmo:42369:3,2021-08-02T01:20:00Z,27.2152,-90.2888,578.5,68.8,11144222
BP,ioos:station:wmo:42369:3,2021-08-02T01:40:00Z,27.2152,-90.2888,579.8,68.8,11144222
BP,ioos:station:wmo:42369:3,2021-08-02T02:00:00Z,27.2153,-90.2889,580.3,68.8,11144222
BP,ioos:station:wmo:42369:3,2021-08-02T02:20:00Z,27.2153,-90.2889,578.8,68.9,11144222
BP,ioos:station:wmo:42369:3,2021-08-02T02:40:00Z,27.2153,-90.2889,578.3,68.8,11144222
BP,ioos:station:wmo:42369:3,2021-08-02T03:00:00Z,27.2153,-90.2889,579.6,68.8,11144222
BP,ioos:station:wmo:42369:3,2021-08-02T03:20:00Z,27.2153,-90.2889,580.7,68.9,11144222
BP,ioos:station:wmo:42369:3,2021-08-02T03:40:00Z,27.2153,-90.2889,581.1,68.9,11144222
BP,ioos:station:wmo:42369:3,2021-08-02T04:00:00Z,27.2153,-90.2889,579.9,68.9,11144222
BP,ioos:station:wmo:42369:3,2021-08-02T04:20:00Z,27.2152,-90.2890,581.4,68.9,11144222
BP,ioos:station:wmo:42369:3,2021-08-02T04:40:00Z,27.2152,-90.2890,583.0,68.9,11144222
BP,ioos:station:wmo:42369:3,2021-08-02T05:00:00Z,27.2152,-90.2891,586.7,68.9,11144222
BP,ioos:station:wmo:42369:3,2021-08-02T05:20:00Z,27.2152,-90.2891,589.5,68.9,11144222
BP,ioos:station:wmo:42369:3,2021-08-02T05:40:00Z,27.2152,-90.2891,590.7,68.9,11144222
BP,ioos:station:wmo:42369:3,2021-08-02T06:00:00Z,27.2152,-90.2891,590.7,68.9,11144222
BP,ioos:station:wmo:42369:3,2021-08-02T06:20:00Z,27.2152,-90.2891,592.6,69.0,11144222
BP,ioos:station:wmo:42369:3,2021-08-02T06:40:00Z,27.2152,-90.2891,593.7,69.0,11144222
BP,ioos:station:wmo:42369:3,2021-08-02T07:00:00Z,27.2152,-90.2891,594.6,69.0,11144222
BP,ioos:station:wmo:42369:3,2021-08-02T07:20:00Z,27.2152,-90.2891,597.7,69.0,11144222
BP,ioos:station:wmo:42369:3,2021-08-02T07:40:00Z,27.2152,-90.2891,596.4,69.0,11144222
BP,ioos:station:wmo:42369:3,2021-08-02T08:20:00Z,27.2152,-90.2892,597.1,69.0,11144222
BP,ioos:station:wmo:42369:3,2021-08-02T08:40:00Z,27.2152,-90.2892,597.6,69.0,11144222
BP,ioos:station:wmo:42369:3,2021-08-02T09:00:00Z,27.2152,-90.2892,596.5,69.0,11144222
BP,ioos:station:wmo:42369:3,2021-08-02T09:20:00Z,27.2152,-90.2892,597.6,69.0,11144222
BP,ioos:station:wmo:42369:3,2021-08-02T09:40:00Z,27.2152,-90.2892,596.9,69.0,11144222
BP,ioos:station:wmo:42369:3,2021-08-02T10:00:00Z,27.2152,-90.2892,596.5,69.0,11144222
BP,ioos:station:wmo:42369:3,2021-08-02T10:20:00Z,27.2153,-90.2890,597.6,69.0,11144222
BP,ioos:station:wmo:42369:3,2021-08-02T10:40:00Z,27.2153,-90.2890,595.0,69.0,11144222
BP,ioos:station:wmo:42369:3,2021-08-02T11:00:00Z,27.2154,-90.2889,594.0,69.0,11144222
BP,ioos:station:wmo:42369:3,2021-08-02T11:20:00Z,27.2154,-90.2887,594.3,69.0,11144222
BP,ioos:station:wmo:42369:3,2021-08-02T11:40:00Z,27.2155,-90.2887,595.3,69.0,11144222
BP,ioos:station:wmo:42369:3,2021-08-02T12:00:00Z,27.2155,-90.2886,596.4,69.0,11144222
BP,ioos:station:wmo:42369:3,2021-08-02T12:20:00Z,27.2157,-90.2884,597.8,69.0,11144222
BP,ioos:station:wmo:42369:3,2021-08-02T12:40:00Z,27.2157,-90.2884,598.8,69.0,11144222
BP,ioos:station:wmo:42369:3,2021-08-02T13:00:00Z,27.2158,-90.2882,598.9,69.0,11144222
BP,ioos:station:wmo:42369:3,2021-08-02T13:20:00Z,27.2158,-90.2882,598.3,69.0,11144222
BP,ioos:station:wmo:42369:3,2021-08-02T13:40:00Z,27.2157,-90.2882,599.9,69.0,11144222
BP,ioos:station:wmo:42369:3,2021-08-02T14:00:00Z,27.2157,-90.2882,598.9,69.0,11144222
BP,ioos:station:wmo:42369:3,2021-08-02T14:20:00Z,27.2158,-90.2882,600.8,69.0,11144222
BP,ioos:station:wmo:42369:3,2021-08-02T14:40:00Z,27.2158,-90.2881,599.7,69.0,11144222
BP,ioos:station:wmo:42369:3,2021-08-02T15:00:00Z,27.2157,-90.2880,598.6,69.0,11144222
BP,ioos:station:wmo:42369:3,2021-08-02T15:20:00Z,27.2155,-90.2882,598.1,69.0,11144222
BP,ioos:station:wmo:42369:3,2021-08-02T15:40:00Z,27.2153,-90.2884,597.0,69.0,11144222
BP,ioos:station:wmo:42369:3,2021-08-02T16:00:00Z,27.2153,-90.2885,597.0,69.0,11144222
BP,ioos:station:wmo:42369:3,2021-08-02T16:20:00Z,27.2152,-90.2885,595.2,69.0,11144222
BP,ioos:station:wmo:42369:3,2021-08-02T16:40:00Z,27.2152,-90.2885,599.4,69.0,11144222
BP,ioos:station:wmo:42369:3,2021-08-02T17:00:00Z,27.2153,-90.2883,600.3,69.0,11144222
BP,ioos:station:wmo:42369:3,2021-08-02T17:20:00Z,27.2153,-90.2882,598.3,69.0,11144222
BP,ioos:station:wmo:42369:3,2021-08-02T17:40:00Z,27.2153,-90.2881,596.3,69.0,11144222
BP,ioos:station:wmo:42369:3,2021-08-02T18:00:00Z,27.2154,-90.2881,595.4,69.0,11144222
BP,ioos:station:wmo:42369:3,2021-08-02T18:20:00Z,27.2154,-90.2881,594.6,69.0,11144222
BP,ioos:station:wmo:42369:3,2021-08-02T18:40:00Z,27.2153,-90.2881,593.2,69.0,11144222
BP,ioos:station:wmo:42369:3,2021-08-02T19:00:00Z,27.2153,-90.2881,589.0,69.0,11144222
BP,ioos:station:wmo:42369:3,2021-08-02T19:20:00Z,27.2153,-90.2881,586.0,69.0,11144222
BP,ioos:station:wmo:42369:3,2021-08-02T19:40:00Z,27.2152,-90.2881,582.3,69.0,11144222
BP,ioos:station:wmo:42369:3,2021-08-02T20:00:00Z,27.2151,-90.2881,578.7,69.0,11144222
BP,ioos:station:wmo:42369:3,2021-08-02T20:20:00Z,27.2151,-90.2881,572.9,68.9,11144222
BP,ioos:station:wmo:42369:3,2021-08-02T20:40:00Z,27.2150,-90.2881,568.1,68.9,11144222
BP,ioos:station:wmo:42369:3,2021-08-02T21:00:00Z,27.2150,-90.2882,564.3,68.9,11144222
BP,ioos:station:wmo:42369:3,2021-08-02T21:20:00Z,27.2150,-90.2882,565.9,68.9,11144222
BP,ioos:station:wmo:42369:3,2021-08-02T21:40:00Z,27.2150,-90.2882,565.2,69.0,11144222
BP,ioos:station:wmo:42369:3,2021-08-02T22:00:00Z,27.2149,-90.2882,561.0,68.9,11144222
BP,ioos:station:wmo:42369:3,2021-08-02T22:20:00Z,27.2149,-90.2882,556.0,68.9,11144222
BP,ioos:station:wmo:42369:3,2021-08-02T22:40:00Z,27.2149,-90.2883,550.3,68.9,11144222
BP,ioos:station:wmo:42369:3,2021-08-02T23:00:00Z,27.2149,-90.2883,544.2,68.9,11144222
BP,ioos:station:wmo:42369:3,2021-08-02T23:20:00Z,27.2148,-90.2884,539.6,68.9,11144222
BP,ioos:station:wmo:42369:3,2021-08-02T23:40:00Z,27.2148,-90.2884,536.1,68.9,11144222
BP,ioos:station:wmo:42369:3,2021-08-03T00:00:00Z,27.2148,-90.2884,535.1,68.9,11144222
BP,ioos:station:wmo:42369:3,2021-08-03T00:20:00Z,27.2148,-90.2884,534.5,68.9,11144222
BP,ioos:station:wmo:42369:3,2021-08-03T00:40:00Z,27.2148,-90.2884,533.9,68.9,11144222
BP,ioos:station:wmo:42369:3,2021-08-03T01:00:00Z,27.2149,-90.2884,534.1,68.9,11144222
BP,ioos:station:wmo:42369:3,2021-08-03T01:20:00Z,27.2149,-90.2884,533.5,68.9,11144222
BP,ioos:station:wmo:42369:3,2021-08-03T01:40:00Z,27.2149,-90.2884,534.5,68.9,11144222
BP,ioos:station:wmo:42369:3,2021-08-03T02:00:00Z,27.2148,-90.2884,534.3,68.9,11144222
BP,ioos:station:wmo:42369:3,2021-08-03T02:20:00Z,27.2148,-90.2884,532.6,68.9,11144222
BP,ioos:station:wmo:42369:3,2021-08-03T02:40:00Z,27.2148,-90.2885,529.9,68.9,11144222
BP,ioos:station:wmo:42369:3,2021-08-03T03:00:00Z,27.2147,-90.2886,532.2,68.9,11144222
BP,ioos:station:wmo:42369:3,2021-08-03T03:20:00Z,27.2147,-90.2886,531.0,68.9,11144222
BP,ioos:station:wmo:42369:3,2021-08-03T03:40:00Z,27.2146,-90.2886,529.5,68.9,11144222
BP,ioos:station:wmo:42369:3,2021-08-03T04:00:00Z,27.2145,-90.2887,529.1,68.8,11144222
BP,ioos:station:wmo:42369:3,2021-08-03T04:20:00Z,27.2144,-90.2887,526.8,68.8,11144222
BP,ioos:station:wmo:42369:3,2021-08-03T04:40:00Z,27.2144,-90.2887,522.7,68.8,11144222
BP,ioos:station:wmo:42369:3,2021-08-03T05:00:00Z,27.2144,-90.2886,522.2,68.8,11144222
BP,ioos:station:wmo:42369:3,2021-08-03T05:20:00Z,27.2144,-90.2884,519.1,68.8,11144222
BP,ioos:station:wmo:42369:3,2021-08-03T05:40:00Z,27.2144,-90.2884,516.5,68.8,11144222
BP,ioos:station:wmo:42369:3,2021-08-03T06:00:00Z,27.2144,-90.2884,516.6,68.8,11144222
BP,ioos:station:wmo:42369:3,2021-08-03T06:20:00Z,27.2144,-90.2885,517.1,68.8,11144222
BP,ioos:station:wmo:42369:3,2021-08-03T06:40:00Z,27.2143,-90.2886,516.9,68.8,11144222
BP,ioos:station:wmo:42369:3,2021-08-03T07:00:00Z,27.2143,-90.2886,514.8,68.8,11144222
BP,ioos:station:wmo:42369:3,2021-08-03T07:20:00Z,27.2142,-90.2886,512.6,68.8,11144222
BP,ioos:station:wmo:42369:3,2021-08-03T07:40:00Z,27.2141,-90.2887,511.3,68.8,11144222
BP,ioos:station:wmo:42369:3,2021-08-03T08:00:00Z,27.2140,-90.2888,510.7,68.8,11144222
BP,ioos:station:wmo:42369:3,2021-08-03T08:20:00Z,27.2139,-90.2888,508.9,68.9,11144222
BP,ioos:station:wmo:42369:3,2021-08-03T08:40:00Z,27.2140,-90.2886,508.4,68.9,11144222
BP,ioos:station:wmo:42369:3,2021-08-03T09:00:00Z,27.2141,-90.2885,507.1,68.9,11144222
BP,ioos:station:wmo:42369:3,2021-08-03T09:20:00Z,27.2141,-90.2885,507.4,68.9,11144222
BP,ioos:station:wmo:42369:3,2021-08-03T09:40:00Z,27.2141,-90.2885,506.5,68.9,11144222
BP,ioos:station:wmo:42369:3,2021-08-03T10:00:00Z,27.2140,-90.2886,507.3,68.9,11144222
BP,ioos:station:wmo:42369:3,2021-08-03T10:20:00Z,27.2139,-90.2885,503.5,68.9,11144222
BP,ioos:station:wmo:42369:3,2021-08-03T10:40:00Z,27.2139,-90.2889,502.3,68.9,11144222
BP,ioos:station:wmo:42369:3,2021-08-03T11:00:00Z,27.2138,-90.2886,501.0,68.9,11144222
BP,ioos:station:wmo:42369:3,2021-08-03T11:20:00Z,27.2138,-90.2887,500.3,68.9,11144222
BP,ioos:station:wmo:42369:3,2021-08-03T11:40:00Z,27.2138,-90.2886,498.9,68.9,11144222
BP,ioos:station:wmo:42369:3,2021-08-03T12:00:00Z,27.2137,-90.2886,496.4,68.9,11144222
BP,ioos:station:wmo:42369:3,2021-08-03T12:20:00Z,27.2137,-90.2885,494.1,68.9,11144222
BP,ioos:station:wmo:42369:3,2021-08-03T12:40:00Z,27.2136,-90.2885,492.6,68.9,11144222
BP,ioos:station:wmo:42369:3,2021-08-03T13:00:00Z,27.2136,-90.2884,490.9,68.9,11144222
BP,ioos:station:wmo:42369:3,2021-08-03T13:20:00Z,27.2136,-90.2883,489.3,68.9,11144222
BP,ioos:station:wmo:42369:3,2021-08-03T13:40:00Z,27.2136,-90.2883,486.8,68.9,11144222
BP,ioos:station:wmo:42369:3,2021-08-03T14:00:00Z,27.2135,-90.2883,485.6,68.9,11144222
BP,ioos:station:wmo:42369:3,2021-08-03T14:20:00Z,27.2135,-90.2882,484.0,68.9,11144222
BP,ioos:station:wmo:42369:3,2021-08-03T14:40:00Z,27.2134,-90.2881,481.3,68.9,11144222
BP,ioos:station:wmo:42369:3,2021-08-03T15:00:00Z,27.2134,-90.2880,478.8,68.9,11144222
BP,ioos:station:wmo:42369:3,2021-08-03T15:20:00Z,27.2134,-90.2879,477.4,68.9,11144222
BP,ioos:station:wmo:42369:3,2021-08-03T15:40:00Z,27.2134,-90.2878,475.2,68.9,11144222
BP,ioos:station:wmo:42369:3,2021-08-03T16:00:00Z,27.2134,-90.2877,474.0,68.9,11144222
BP,ioos:station:wmo:42369:3,2021-08-03T16:20:00Z,27.2134,-90.2877,473.8,68.9,11144222
BP,ioos:station:wmo:42369:3,2021-08-03T16:40:00Z,27.2134,-90.2875,470.8,68.9,11144222
BP,ioos:station:wmo:42369:3,2021-08-03T17:00:00Z,27.2135,-90.2874,470.9,68.9,11144222
BP,ioos:station:wmo:42369:3,2021-08-03T17:20:00Z,27.2135,-90.2873,471.4,68.9,11144222
BP,ioos:station:wmo:42369:3,2021-08-03T17:40:00Z,27.2136,-90.2871,470.6,68.9,11144222
BP,ioos:station:wmo:42369:3,2021-08-03T18:00:00Z,27.2137,-90.2871,471.4,68.9,11144222
BP,ioos:station:wmo:42369:3,2021-08-03T18:20:00Z,27.2136,-90.2870,469.3,68.9,11144222
BP,ioos:station:wmo:42369:3,2021-08-03T18:40:00Z,27.2137,-90.2870,469.3,68.9,11144222
BP,ioos:station:wmo:42369:3,2021-08-03T19:00:00Z,27.2136,-90.2870,468.1,68.9,11144222
BP,ioos:station:wmo:42369:3,2021-08-03T19:20:00Z,27.2135,-90.2872,468.3,68.9,11144222
BP,ioos:station:wmo:42369:3,2021-08-03T19:40:00Z,27.2134,-90.2874,468.6,68.9,11144222
BP,ioos:station:wmo:42369:3,2021-08-03T20:00:00Z,27.2133,-90.2875,467.9,68.9,11144222
BP,ioos:station:wmo:42369:3,2021-08-03T20:20:00Z,27.2133,-90.2876,467.3,68.9,11144222
BP,ioos:station:wmo:42369:3,2021-08-03T20:40:00Z,27.2132,-90.2877,467.1,68.9,11144222
BP,ioos:station:wmo:42369:3,2021-08-03T21:00:00Z,27.2132,-90.2876,465.9,68.8,11144222
BP,ioos:station:wmo:42369:3,2021-08-03T21:20:00Z,27.2131,-90.2876,465.3,68.8,11144222
BP,ioos:station:wmo:42369:3,2021-08-03T21:40:00Z,27.2130,-90.2877,465.1,68.9,11144222
BP,ioos:station:wmo:42369:3,2021-08-03T22:00:00Z,27.2129,-90.2878,463.0,68.9,11144222
BP,ioos:station:wmo:42369:3,2021-08-03T22:20:00Z,27.2128,-90.2879,462.3,68.9,11144222
BP,ioos:station:wmo:42369:3,2021-08-03T22:40:00Z,27.2127,-90.2880,462.9,68.9,11144222
BP,ioos:station:wmo:42369:3,2021-08-03T23:00:00Z,27.2126,-90.2882,462.2,68.9,11144222
BP,ioos:station:wmo:42369:3,2021-08-03T23:20:00Z,27.2125,-90.2883,462.7,68.8,11144222
BP,ioos:station:wmo:42369:3,2021-08-03T23:40:00Z,27.2124,-90.2884,461.4,68.9,11144222
BP,ioos:station:wmo:42369:3,2021-08-04T00:00:00Z,27.2123,-90.2884,461.3,68.9,11144222
BP,ioos:station:wmo:42369:3,2021-08-04T00:20:00Z,27.2123,-90.2883,459.7,68.9,11144222
BP,ioos:station:wmo:42369:3,2021-08-04T00:40:00Z,27.2123,-90.2882,459.6,68.9,11144222
BP,ioos:station:wmo:42369:3,2021-08-04T01:00:00Z,27.2123,-90.2882,457.5,68.8,11144222
BP,ioos:station:wmo:42369:3,2021-08-04T01:20:00Z,27.2122,-90.2882,457.2,68.9,11144222
BP,ioos:station:wmo:42369:3,2021-08-04T01:40:00Z,27.2122,-90.2882,457.5,68.9,11144222
BP,ioos:station:wmo:42369:3,2021-08-04T02:00:00Z,27.2122,-90.2883,457.5,68.9,11144222
BP,ioos:station:wmo:42369:3,2021-08-04T02:20:00Z,27.2121,-90.2883,457.5,68.9,11144222
BP,ioos:station:wmo:42369:3,2021-08-04T02:40:00Z,27.2120,-90.2884,457.4,68.9,11144222
BP,ioos:station:wmo:42369:3,2021-08-04T03:00:00Z,27.2120,-90.2884,457.7,68.9,11144222
BP,ioos:station:wmo:42369:3,2021-08-04T03:20:00Z,27.2119,-90.2886,457.7,68.9,11144222
BP,ioos:station:wmo:42369:3,2021-08-04T03:40:00Z,27.2118,-90.2886,456.9,68.9,11144222
BP,ioos:station:wmo:42369:3,2021-08-04T04:00:00Z,27.2118,-90.2887,456.5,68.9,11144222
BP,ioos:station:wmo:42369:3,2021-08-04T04:20:00Z,27.2117,-90.2887,456.5,68.9,11144222
BP,ioos:station:wmo:42369:3,2021-08-04T04:40:00Z,27.2118,-90.2886,456.8,68.9,11144222
BP,ioos:station:wmo:42369:3,2021-08-04T05:00:00Z,27.2119,-90.2886,457.9,68.9,11144222
BP,ioos:station:wmo:42369:3,2021-08-04T05:20:00Z,27.2119,-90.2886,457.7,68.9,11144222
BP,ioos:station:wmo:42369:3,2021-08-04T05:40:00Z,27.2120,-90.2885,457.6,68.9,11144222
BP,ioos:station:wmo:42369:3,2021-08-04T06:00:00Z,27.2123,-90.2882,458.5,68.9,11144222
BP,ioos:station:wmo:42369:3,2021-08-04T06:20:00Z,27.2126,-90.2880,459.7,68.9,11144222
BP,ioos:station:wmo:42369:3,2021-08-04T06:40:00Z,27.2127,-90.2879,460.7,68.9,11144222
BP,ioos:station:wmo:42369:3,2021-08-04T07:00:00Z,27.2128,-90.2878,461.3,68.9,11144222
BP,ioos:station:wmo:42369:3,2021-08-04T07:20:00Z,27.2129,-90.2876,461.6,68.9,11144222
BP,ioos:station:wmo:42369:3,2021-08-04T07:40:00Z,27.2129,-90.2875,460.9,69.0,11144222
BP,ioos:station:wmo:42369:3,2021-08-04T08:00:00Z,27.2129,-90.2875,460.6,69.0,11144222
BP,ioos:station:wmo:42369:3,2021-08-04T08:20:00Z,27.2130,-90.2875,460.2,69.0,11144222
BP,ioos:station:wmo:42369:3,2021-08-04T08:40:00Z,27.2130,-90.2875,459.5,69.0,11144222
BP,ioos:station:wmo:42369:3,2021-08-04T09:00:00Z,27.2128,-90.2875,458.9,69.0,11144222
BP,ioos:station:wmo:42369:3,2021-08-04T09:20:00Z,27.2128,-90.2875,458.5,69.0,11144222
BP,ioos:station:wmo:42369:3,2021-08-04T09:40:00Z,27.2129,-90.2874,459.3,69.0,11144222
BP,ioos:station:wmo:42369:3,2021-08-04T10:00:00Z,27.2130,-90.2874,459.7,69.0,11144222
BP,ioos:station:wmo:42369:3,2021-08-04T10:20:00Z,27.2130,-90.2873,459.2,69.0,11144222
BP,ioos:station:wmo:42369:3,2021-08-04T10:40:00Z,27.2131,-90.2871,457.5,69.0,11144222
BP,ioos:station:wmo:42369:3,2021-08-04T11:00:00Z,27.2131,-90.2869,457.3,69.0,11144222
BP,ioos:station:wmo:42369:3,2021-08-04T11:20:00Z,27.2131,-90.2868,456.8,69.0,11144222
BP,ioos:station:wmo:42369:3,2021-08-04T11:40:00Z,27.2135,-90.2845,457.1,69.0,11144222
BP,ioos:station:wmo:42369:3,2021-08-04T12:00:00Z,27.2135,-90.2843,457.1,69.0,11144222
BP,ioos:station:wmo:42369:3,2021-08-04T12:20:00Z,27.2135,-90.2841,455.5,69.0,11144222
BP,ioos:station:wmo:42369:3,2021-08-04T12:40:00Z,27.2135,-90.2840,454.1,69.0,11144222
BP,ioos:station:wmo:42369:3,2021-08-04T13:00:00Z,27.2136,-90.2839,454.1,69.0,11144222
BP,ioos:station:wmo:42369:3,2021-08-04T13:20:00Z,27.2136,-90.2839,452.7,69.0,11144222
BP,ioos:station:wmo:42369:3,2021-08-04T13:40:00Z,27.2136,-90.2838,452.9,69.0,11144222
BP,ioos:station:wmo:42369:3,2021-08-04T14:00:00Z,27.2136,-90.2837,451.6,69.0,11144222
BP,ioos:station:wmo:42369:3,2021-08-04T14:20:00Z,27.2136,-90.2836,450.9,69.0,11144222
BP,ioos:station:wmo:42369:3,2021-08-04T15:00:00Z,27.2136,-90.2836,450.4,69.0,11144222
BP,ioos:station:wmo:42369:3,2021-08-04T15:20:00Z,27.2136,-90.2835,449.9,69.0,11144222
BP,ioos:station:wmo:42369:3,2021-08-04T15:40:00Z,27.2136,-90.2834,449.9,69.0,11144222
BP,ioos:station:wmo:42369:3,2021-08-04T16:00:00Z,27.2136,-90.2834,449.3,69.0,11144222
BP,ioos:station:wmo:42369:3,2021-08-04T16:20:00Z,27.2136,-90.2834,450.3,69.0,11144222
BP,ioos:station:wmo:42369:3,2021-08-04T16:40:00Z,27.2136,-90.2832,450.6,69.0,11144222
BP,ioos:station:wmo:42369:3,2021-08-04T17:00:00Z,27.2136,-90.2832,451.6,69.0,11144222
BP,ioos:station:wmo:42369:3,2021-08-04T17:20:00Z,27.2136,-90.2831,450.7,69.0,11144222
BP,ioos:station:wmo:42369:3,2021-08-04T17:40:00Z,27.2136,-90.2831,450.2,69.0,11144222
BP,ioos:station:wmo:42369:3,2021-08-04T18:00:00Z,27.2136,-90.2829,450.4,69.0,11144222
BP,ioos:station:wmo:42369:3,2021-08-04T18:20:00Z,27.2136,-90.2829,449.8,69.0,11144222
BP,ioos:station:wmo:42369:3,2021-08-04T18:40:00Z,27.2136,-90.2828,449.0,69.0,11144222
BP,ioos:station:wmo:42369:3,2021-08-04T19:00:00Z,27.2137,-90.2826,448.7,69.0,11144222
BP,ioos:station:wmo:42369:3,2021-08-04T19:20:00Z,27.2137,-90.2826,448.9,69.0,11144222
BP,ioos:station:wmo:42369:3,2021-08-04T19:40:00Z,27.2137,-90.2825,448.5,69.0,11144222
BP,ioos:station:wmo:42369:3,2021-08-04T20:00:00Z,27.2135,-90.2845,449.2,69.0,11144222
BP,ioos:station:wmo:42369:3,2021-08-04T20:20:00Z,27.2135,-90.2841,448.9,69.0,11144222
BP,ioos:station:wmo:42369:3,2021-08-04T20:40:00Z,27.2136,-90.2839,449.2,69.0,11144222